FW1555 Weather Reports


time (UTC)temp
C
wind
direction
speed
KPH
gust
KPH
rain 1hr
cm
rain 24hr
cm
rain mn
cm
humidity
%
barometer
mb
20260902024600 18 0 0.0 4.8 0.00 1.80 1.65 97 1017.4
20260902023108 18 0 0.0 0.0 0.00 1.80 1.65 97 1017.4
20260902021553 18 0 0.0 6.4 0.00 1.80 1.65 97 1017.2
20260902014556 18 0 0.0 1.6 0.00 1.80 1.65 98 1017.1
20260902013055 18 0 0.0 1.6 0.00 1.80 1.65 97 1016.4
20260902011549 19 0 0.0 1.6 0.00 1.80 1.65 97 1016.2
20260902010048 19 0 0.0 6.4 0.08 1.80 1.65 97 1016.0
20260902004601 20 0 1.6 14.5 0.08 1.80 1.65 96 1015.7
20260902003059 20 0 0.0 6.4 0.08 1.80 1.65 96 1015.8
20260902001603 21 0 1.6 12.9 0.08 1.80 1.65 95 1015.2
20260902000106 21 0 0.0 14.5 0.00 1.73 1.57 95 1015.0
20260901234557 22 0 0.0 9.7 0.00 1.73 1.57 95 1014.8
20260901233058 22 69 0.0 6.4 0.00 1.73 1.57 95 1014.8
20260901231554 23 0 0.0 3.2 0.00 1.73 1.57 95 1014.8
20260901224559 24 0 0.0 8.0 0.00 1.73 1.57 94 1014.4
20260901223056 25 0 0.0 3.2 0.00 1.73 1.57 93 1013.8
20260901221600 25 0 0.0 0.0 0.00 1.73 1.57 92 1013.9
20260901220056 25 0 0.0 1.6 0.00 1.73 1.57 91 1014.0
20260901214548 25 0 0.0 1.6 0.00 1.73 1.57 90 1014.0
20260901213055 26 0 0.0 1.6 0.00 1.73 1.57 89 1014.2
20260901211554 26 0 0.0 0.0 0.00 1.73 1.57 89 1014.2
20260901210100 26 0 0.0 0.0 0.00 1.73 1.57 90 1014.1
20260901204558 25 0 0.0 0.0 0.00 1.73 1.57 93 1014.1
20260901203103 25 0 0.0 0.0 0.00 1.73 1.57 93 1014.1
20260901201603 25 0 0.0 0.0 0.00 1.73 1.57 92 1014.1
20260901200100 25 0 0.0 0.0 0.00 1.73 1.57 89 1014.2
20260901194601 26 0 0.0 0.0 0.00 1.73 1.57 87 1014.3
20260901193054 -17 0.0 0.0 0.00 1.73 1.57 1014.1
20260901191601 25 0 0.0 4.8 0.03 1.73 1.57 91 1014.2
20260901190048 25 0 0.0 8.0 0.03 1.73 1.57 90 1014.2
20260901184557 25 0 0.0 3.2 0.00 1.70 1.55 93 1014.3
20260901183054 24 0 0.0 6.4 0.00 1.70 1.55 95 1014.2
20260901181559 23 0 0.0 6.4 0.00 1.70 1.55 97 1014.3
20260901180058 23 0 0.0 1.6 0.03 1.70 1.55 99 1014.2
20260901174554 23 0 0.0 8.0 0.05 1.70 1.55 100 1014.2
20260901173100 23 168 1.6 9.7 0.08 1.70 1.55 100 1014.1
20260901171604 22 0 0.0 0.0 0.08 1.70 1.55 100 1014.4
20260901170052 22 0 0.0 1.6 0.03 1.65 1.47 100 1014.8
20260901164550 22 0 0.0 0.0 0.03 1.65 1.47 100 1014.5
20260901163059 22 0 0.0 0.0 0.05 1.63 1.47 100 1015.2
20260901161608 22 0 0.0 0.0 0.10 1.63 1.47 100 1015.2
20260901160108 22 0 0.0 1.6 0.15 1.63 1.47 100 1015.0
20260901154557 21 0 0.0 1.6 0.20 1.63 1.47 100 1015.3
20260901153100 21 0 0.0 1.6 0.18 1.57 1.42 100 1015.9
20260901151557 21 0 0.0 1.6 0.15 1.52 1.37 100 1016.1
20260901150049 21 0 0.0 4.8 0.10 1.45 1.30 100 1015.8
20260901144601 21 0 0.0 0.0 0.08 1.42 1.27 100 1015.8
20260901143100 21 0 0.0 0.0 0.05 1.40 1.24 100 1016.0
20260901141552 21 0 0.0 0.0 0.00 1.32 1.19 100 1015.9
20260901140049 21 0 0.0 0.0 0.00 1.32 1.19 100 1016.1
20260901134549 21 0 0.0 0.0 0.00 1.32 1.19 100 1015.8
20260901133059 21 0 0.0 0.0 0.00 1.32 1.19 100 1015.7
20260901131555 21 0 0.0 0.0 0.00 1.32 1.19 100 1015.7
20260901130059 21 0 0.0 0.0 0.00 1.32 1.19 100 1015.8
20260901124549 21 0 0.0 0.0 0.00 1.32 1.19 100 1015.9
20260901123058 21 0 0.0 0.0 0.00 1.32 1.19 100 1015.6
20260901121551 21 0 0.0 0.0 0.00 1.32 1.19 100 1015.7
20260901120050 21 0 0.0 0.0 0.00 1.32 1.19 100 1015.6
20260901114622 21 0 0.0 0.0 0.00 1.32 1.19 100 1015.9
20260901113057 20 0 0.0 0.0 0.00 1.32 1.19 100 1015.8
20260901111552 20 0 0.0 0.0 0.00 1.32 1.19 100 1015.6
20260901104557 20 0 0.0 0.0 0.00 1.32 1.19 100 1015.9
20260901103051 20 0 0.0 0.0 0.00 1.32 1.19 100 1016.1
20260901101553 20 0 0.0 0.0 0.00 1.32 1.19 100 1016.0
20260901100056 20 0 0.0 0.0 0.00 1.32 1.19 100 1015.6
20260901094550 20 0 0.0 0.0 0.00 1.32 1.19 100 1015.6
20260901093059 20 0 0.0 0.0 0.00 1.32 1.19 100 1015.7
20260901091549 20 0 0.0 0.0 0.00 1.32 1.19 100 1015.8
20260901090058 20 0 0.0 0.0 0.00 1.32 1.19 100 1015.8
20260901084604 20 0 0.0 0.0 0.00 1.32 1.19 100 1016.0
20260901083054 20 0 0.0 0.0 0.00 1.32 1.19 100 1016.1
20260901081548 20 0 0.0 0.0 0.00 1.32 1.19 100 1016.1
20260901080050 20 0 0.0 0.0 0.00 1.32 1.19 100 1016.2
20260901074558 20 0 0.0 1.6 0.00 1.32 1.19 100 1016.3
20260901073100 20 0 0.0 0.0 0.00 1.32 1.19 100 1016.3
20260901071549 20 0 0.0 0.0 0.00 1.32 1.19 100 1016.2
20260901070113 20 0 0.0 3.2 0.25 1.32 1.19 99 1016.4
20260901064557 20 0 0.0 1.6 0.30 1.32 1.19 99 1016.6
20260901063053 20 0 0.0 0.0 0.33 1.32 1.19 99 1016.7
20260901061603 20 0 0.0 0.0 0.33 1.32 1.19 99 1016.9
20260901060100 20 0 0.0 0.0 0.20 1.09 0.94 99 1017.2
20260901054559 20 0 0.0 0.0 0.48 1.04 0.89 99 1016.9
20260901053054 20 0 0.0 1.6 0.64 1.02 0.86 98 1017.0
20260901051559 20 0 0.0 0.0 0.74 1.02 0.86 98 1017.1
20260901050058 20 0 0.0 0.0 0.71 0.89 0.74 98 1017.3
20260901044557 20 0 0.0 0.0 0.53 0.56 0.41 97 1017.4
20260901043051 20 0 0.0 0.0 0.38 0.38 0.23 96 1017.6
20260901041550 20 0 0.0 0.0 0.28 0.28 0.13 95 1017.6
20260901040058 21 0 0.0 0.0 0.15 0.15 0.00 95 1017.6
20260901034553 21 0 0.0 0.0 0.03 0.03 0.03 94 1017.5
20260901033117 21 0 0.0 0.0 0.00 0.00 0.00 93 1017.5
20260901031559 21 0 0.0 0.0 0.00 0.00 0.00 92 1017.6